Location: Qu�bec
(46.8000°N, 71.2500°W)
Time: 08:04:01
(UTC-05:00)

Amateur Radio Satellites - All Passes

Search period start: 11 December 2017 07:34
Search period end: 12 December 2017 07:34
Location: Qu�bec, 46.8000°N, 71.2500°W

Satellite Date Start Highest point End Downlink Frequencies (MHz)
Time Altitude Azimuth
BEESAT 2 11 Dec 07:42:59 07:44:27 12° 251° (WSW) 07:45:55 435.950
CUTE 1.7 + AOD 2 11 Dec 07:43:45 07:47:34 31° 292° (WNW) 07:51:22 437.475
HO-68 11 Dec 07:44:17 07:51:20 62° 293° (WNW) 07:58:21 435.675
CUBEBUG 2 11 Dec 07:49:24 07:53:24 44° 289° (WNW) 07:57:28 437.445
UWE-3 11 Dec 07:57:27 08:01:39 63° 286° (WNW) 08:05:57 435.000/436.395/437.385
AAUSAT CUBESAT 2 11 Dec 07:59:54 08:04:05 71° 286° (WNW) 08:08:13 437.432
NO-84 11 Dec 08:05:16 08:08:24 69° 142° (SE) 08:11:48 435.350 FM
CUTE-I 11 Dec 08:06:30 08:09:30 15° 305° (NW) 08:12:29 437.470
DELFI C3 11 Dec 08:07:21 08:07:58 10° 87° (E) 08:08:36 145.870
XW-2A 11 Dec 08:24:45 08:27:44 28° 291° (WNW) 08:30:43 145.665 - 145.685
TIGRISAT 11 Dec 08:26:10 08:30:24 61° 73° (ENE) 08:34:37 435.000
UNISAT 6 11 Dec 08:28:15 08:32:33 70° 74° (ENE) 08:36:49 437.425
O/OREOS (USA 219) 11 Dec 08:28:23 08:32:37 38° 107° (ESE) 08:36:53 437.305
FO-29 11 Dec 08:29:38 08:36:33 36° 268° (W) 08:43:41 435.910
ZACube-1 11 Dec 08:31:42 08:35:52 51° 288° (WNW) 08:40:07 437.345
AO-85 11 Dec 08:35:28 08:38:35 17° 249° (WSW) 08:41:48 145.980
PRISM 11 Dec 08:45:57 08:49:44 35° 68° (ENE) 08:53:32 437.425
AIST 2D 11 Dec 08:52:10 08:53:35 12° 62° (ENE) 08:55:00 435.315
Oscar 11 11 Dec 08:58:31 09:02:43 46° 289° (WNW) 09:06:53 .
Max Valier Satellite 11 Dec 09:05:13 09:08:33 30° 96° (E) 09:11:53 145.860
AO-73 11 Dec 09:08:40 09:12:14 26° 294° (WNW) 09:15:51 145.935
QB50P2 11 Dec 09:10:46 09:11:12 10° 57° (ENE) 09:11:38 145.880/145.840
HO-68 11 Dec 09:33:51 09:37:42 15° 314° (NW) 09:41:33 435.675
DELFI C3 11 Dec 09:39:15 09:43:13 73° 286° (WNW) 09:47:08 145.870
EO-88 11 Dec 09:42:29 09:46:07 58° 101° (E) 09:49:44 145.990 - 145.960
NO-84 11 Dec 09:42:58 09:45:55 29° 344° (NNW) 09:49:07 435.350 FM
NANOSAT C BR1 11 Dec 09:43:55 09:46:42 18° 62° (ENE) 09:49:29 145.865
EO-79 11 Dec 09:55:43 09:59:10 25° 66° (ENE) 10:02:36 145.935-145.965
TIGRISAT 11 Dec 10:05:08 10:07:29 14° 270° (W) 10:09:51 435.000
UNISAT 6 11 Dec 10:07:53 10:09:44 12° 271° (W) 10:11:36 437.425
O/OREOS (USA 219) 11 Dec 10:08:10 10:12:08 28° 306° (NW) 10:16:06 437.305
POLYITAN 1 11 Dec 10:17:02 10:20:56 40° 70° (ENE) 10:24:52 437.675
PRISM 11 Dec 10:21:41 10:25:04 24° 266° (W) 10:28:28 437.425
AIST 2D 11 Dec 10:22:51 10:26:17 55° 259° (W) 10:29:46 435.315
LO-87 11 Dec 10:26:09 10:29:06 24° 95° (E) 10:32:01 145.935 - 145.965
ESTCUBE 1 11 Dec 10:29:21 10:33:01 23° 93° (E) 10:36:39 437.505/2401.250
Max Valier Satellite 11 Dec 10:39:19 10:42:13 22° 293° (WNW) 10:45:06 145.860
QB50P2 11 Dec 10:42:03 10:46:15 82° 75° (ENE) 10:50:28 145.880/145.840
Oscar 19 11 Dec 10:50:33 10:53:40 16° 57° (ENE) 10:56:46 437.125/150
DUCHIFAT 1 11 Dec 10:53:39 10:57:48 76° 76° (ENE) 11:01:59 145.980
Gurwin Techsat 1B 11 Dec 11:01:20 11:04:26 16° 56° (NE) 11:07:32 435.225
EO-88 11 Dec 11:17:39 11:19:18 13° 298° (WNW) 11:20:55 145.990 - 145.960
NANOSAT C BR1 11 Dec 11:17:57 11:22:02 51° 260° (W) 11:26:08 145.865
NO-84 11 Dec 11:21:08 11:24:01 22° 5° (N) 11:27:04 435.350 FM
AO-91 11 Dec 11:22:37 11:26:37 25° 66° (ENE) 11:30:20 145.960
EO-79 11 Dec 11:30:58 11:34:47 34° 263° (W) 11:38:37 145.935-145.965
nSIGHT-1 11 Dec 11:32:51 11:33:38 11° 133° (SE) 11:34:25 .
YUBILEINY 11 Dec 11:41:42 11:45:54 14° 49° (NE) 11:50:04 435.215
BUGSAT 1 11 Dec 11:49:43 11:53:46 76° 75° (ENE) 11:57:48 437.445
POLYITAN 1 11 Dec 11:53:43 11:56:53 21° 267° (W) 12:00:03 437.675
SPROUT 11 Dec 11:54:16 11:58:19 42° 98° (E) 12:02:20 437.525
ISS 11 Dec 11:59:25 12:01:23 15° 135° (SE) 12:03:21 437.550
LO-87 11 Dec 11:59:32 12:02:26 24° 292° (WNW) 12:05:20 145.935 - 145.965
ESTCUBE 1 11 Dec 12:05:41 12:09:58 41° 291° (WNW) 12:14:13 437.505/2401.250
AO-7 11 Dec 12:07:28 12:13:32 23° 46° (NE) 12:19:38 .
VELOX 1 11 Dec 12:19:41 12:23:58 46° 99° (E) 12:28:12 145.980
QB50P2 11 Dec 12:22:04 12:22:36 10° 273° (W) 12:23:08 145.880/145.840
Oscar 19 11 Dec 12:27:10 12:32:19 83° 255° (WSW) 12:37:31 437.125/150
DUCHIFAT 1 11 Dec 12:32:50 12:34:00 11° 272° (W) 12:35:09 145.980
Gurwin Techsat 1B 11 Dec 12:38:19 12:43:38 90° 240° (WSW) 12:49:01 435.225
RS-15 11 Dec 12:43:51 12:50:13 16° 94° (E) 12:56:34 29.354- 29.394
50 SAT 11 Dec 12:51:50 12:54:11 19° 95° (E) 12:56:32 437.505
AO-91 11 Dec 12:58:05 13:02:53 44° 261° (W) 13:07:18 145.960
NO-84 11 Dec 12:58:23 13:01:58 43° 25° (NNE) 13:05:48 435.350 FM
nSIGHT-1 11 Dec 13:06:06 13:09:17 64° 151° (SSE) 13:12:29 .
UKube-1 11 Dec 13:20:15 13:23:59 28° 96° (E) 13:27:42 .
M-CUBED/EXP-1 PRIME 11 Dec 13:20:21 13:24:22 40° 63° (ENE) 13:28:37 437.505
DX 1 11 Dec 13:27:29 13:31:46 53° 101° (E) 13:36:00 434.975-435.025
BUGSAT 1 11 Dec 13:28:55 13:29:37 10° 272° (W) 13:30:19 437.445
SPROUT 11 Dec 13:30:44 13:33:57 21° 296° (WNW) 13:37:09 437.525
ITAMSAT 1 11 Dec 13:31:56 13:36:18 28° 63° (ENE) 13:40:42 435.822/435.867
ISS 11 Dec 13:34:09 13:37:26 84° 154° (SSE) 13:40:45 437.550
YUBILEINY 11 Dec 13:36:25 13:45:08 57° 74° (ENE) 13:53:43 435.215
MOZHAYETS 4 11 Dec 13:43:31 13:45:32 13° 88° (E) 13:47:32
VELOX 1 11 Dec 13:56:47 14:00:06 21° 297° (WNW) 14:03:23 145.980
AO-7 11 Dec 13:56:51 14:05:08 80° 67° (ENE) 14:13:29 .
ITUPSAT 1 11 Dec 13:57:15 13:58:52 12° 87° (E) 14:00:29 437.325
Oscar 19 11 Dec 14:10:48 14:12:26 11° 274° (W) 14:14:05 437.125/150
Gurwin Techsat 1B 11 Dec 14:21:53 14:24:20 13° 273° (W) 14:26:48 435.225
50 SAT 11 Dec 14:23:31 14:26:08 24° 292° (WNW) 14:28:42 437.505
DOVE 4 11 Dec 14:32:49 14:36:43 21° 62° (ENE) 14:40:34 437.250
NO-84 11 Dec 14:35:36 14:39:17 41° 222° (SW) 14:43:10 435.350 FM
nSIGHT-1 11 Dec 14:42:35 14:45:39 38° 349° (N) 14:48:42 .
RS-15 11 Dec 14:48:05 15:00:07 64° 116° (ESE) 15:12:03 29.354- 29.394
M-CUBED/EXP-1 PRIME 11 Dec 14:55:20 14:58:51 25° 262° (W) 15:02:34 437.505
CUBESAT XI-V 11 Dec 14:55:57 14:59:07 18° 90° (E) 15:02:16 437.345
UKube-1 11 Dec 14:56:10 14:59:59 31° 294° (WNW) 15:03:47 .
DX 1 11 Dec 15:04:33 15:07:34 19° 299° (WNW) 15:10:34 434.975-435.025
BEESAT 11 Dec 15:06:50 15:11:31 54° 101° (E) 15:16:10 436.000
ITAMSAT 1 11 Dec 15:10:34 15:15:34 45° 261° (W) 15:20:34 435.822/435.867
ISS 11 Dec 15:11:04 15:14:09 36° 352° (N) 15:17:15 437.550
MOZHAYETS 4 11 Dec 15:18:37 15:23:15 79° 285° (WNW) 15:27:52
ITUPSAT 1 11 Dec 15:32:34 15:37:21 89° 291° (WNW) 15:42:08 437.325
YUBILEINY 11 Dec 15:33:45 15:41:34 37° 276° (W) 15:49:18 435.215
XW-2D 11 Dec 15:35:59 15:37:27 12° 61° (ENE) 15:38:55 145.860 - 145.880
XW-2B 11 Dec 15:50:40 15:53:03 16° 63° (ENE) 15:55:27 145.730 - 145.750
AO-7 11 Dec 15:52:15 15:58:46 25° 268° (W) 16:05:21 .
KAITUO 1B 11 Dec 15:53:29 15:55:15 13° 62° (ENE) 15:57:01 145.475/437.950
NUDT-PHONESAT 11 Dec 15:56:24 15:58:07 13° 62° (ENE) 15:59:51 437.300
SO-50 11 Dec 15:57:49 16:02:07 49° 121° (ESE) 16:06:29 436.795
KKS-1 11 Dec 15:59:33 16:01:58 14° 90° (E) 16:04:23 437.445
XW-2F 11 Dec 16:05:26 16:08:20 21° 66° (ENE) 16:11:16 145.980 - 146.000
DOVE 4 11 Dec 16:08:42 16:13:57 63° 260° (W) 16:19:07 437.250
CUTE-I 11 Dec 16:10:31 16:15:11 31° 64° (ENE) 16:19:52 437.470
XW-2C 11 Dec 16:16:41 16:20:01 30° 68° (ENE) 16:23:23 145.795 - 145.815
nSIGHT-1 11 Dec 16:19:18 16:22:19 36° 9° (N) 16:25:21 .
HO-68 11 Dec 16:29:01 16:35:08 32° 57° (ENE) 16:41:17 435.675
CUBESAT XI-V 11 Dec 16:32:12 16:36:52 59° 288° (WNW) 16:41:28 437.345
BEESAT 11 Dec 16:45:23 16:48:55 21° 299° (WNW) 16:52:26 436.000
LilacSat-2 11 Dec 16:47:55 16:51:42 75° 75° (ENE) 16:55:33 437.200
ISS 11 Dec 16:47:58 16:51:06 40° 12° (NNE) 16:54:15 437.550
SEEDS 11 Dec 16:49:15 16:51:23 14° 60° (ENE) 16:53:30 437.485
STARS 11 Dec 16:52:18 16:55:32 20° 93° (E) 16:58:46 437.465
O/OREOS (USA 219) 11 Dec 16:56:46 16:59:53 18° 48° (NE) 17:02:59 437.305
MOZHAYETS 4 11 Dec 16:58:12 16:59:37 11° 304° (NW) 17:01:01
RS-15 11 Dec 17:01:06 17:13:07 54° 322° (NW) 17:24:56 29.354- 29.394
CUTE 1.7 + AOD 2 11 Dec 17:03:15 17:06:54 28° 67° (ENE) 17:10:33 437.475
XW-2D 11 Dec 17:07:20 17:11:05 68° 259° (WSW) 17:14:54 145.860 - 145.880
ITUPSAT 1 11 Dec 17:12:12 17:14:28 13° 304° (WNW) 17:16:45 437.325
CUBEBUG 2 11 Dec 17:14:25 17:17:43 23° 65° (ENE) 17:20:59 437.445
AAUSAT CUBESAT 2 11 Dec 17:19:34 17:21:23 13° 60° (ENE) 17:23:13 437.432
UWE-3 11 Dec 17:22:29 17:25:05 16° 62° (ENE) 17:27:39 435.000/436.395/437.385
XW-2B 11 Dec 17:23:14 17:26:52 45° 261° (W) 17:30:34 145.730 - 145.750
KAITUO 1B 11 Dec 17:25:04 17:28:45 59° 259° (W) 17:32:29 145.475/437.950
XW-2A 11 Dec 17:27:40 17:28:42 11° 62° (ENE) 17:29:44 145.665 - 145.685
NUDT-PHONESAT 11 Dec 17:27:52 17:31:30 57° 260° (W) 17:35:10 437.300
KKS-1 11 Dec 17:34:34 17:38:58 65° 288° (WNW) 17:43:20 437.445
XW-2F 11 Dec 17:38:52 17:42:15 32° 263° (W) 17:45:42 145.980 - 146.000
SO-50 11 Dec 17:38:54 17:42:48 28° 321° (NW) 17:46:45 436.795
CUTE-I 11 Dec 17:50:02 17:55:05 42° 262° (W) 18:00:11 437.470
XW-2C 11 Dec 17:51:12 17:54:13 22° 266° (W) 17:57:16 145.795 - 145.815
ZACube-1 11 Dec 17:55:14 17:58:09 19° 63° (ENE) 18:01:03 437.345
nSIGHT-1 11 Dec 17:55:30 17:58:44 78° 209° (SSW) 18:01:57 .
HO-68 11 Dec 18:15:19 18:22:26 63° 257° (WSW) 18:29:36 435.675
Oscar 11 11 Dec 18:20:43 18:24:00 22° 64° (ENE) 18:27:18 .
SEEDS 11 Dec 18:22:17 18:26:29 72° 259° (W) 18:30:45 437.485
ISS 11 Dec 18:24:28 18:27:43 59° 211° (SSW) 18:30:57 437.550
STARS 11 Dec 18:27:56 18:32:06 44° 290° (WNW) 18:36:13 437.465
AO-73 11 Dec 18:30:22 18:34:09 36° 69° (ENE) 18:37:57 145.935
O/OREOS (USA 219) 11 Dec 18:35:17 18:39:47 67° 248° (WSW) 18:44:13 437.305
PCSat 11 Dec 18:37:24 18:42:16 35° 112° (ESE) 18:47:10 145.827
CUTE 1.7 + AOD 2 11 Dec 18:38:53 18:42:39 30° 265° (W) 18:46:28 437.475
STRAND 1 11 Dec 18:43:47 18:48:27 35° 97° (E) 18:53:05 437.568
CUBEBUG 2 11 Dec 18:50:13 18:54:10 37° 263° (W) 18:58:04 437.445
AAUSAT CUBESAT 2 11 Dec 18:52:04 18:56:14 77° 258° (WSW) 19:00:27 437.432
DELFI C3 11 Dec 18:55:57 18:56:25 10° 59° (ENE) 18:56:54 145.870
UWE-3 11 Dec 18:57:03 19:01:08 54° 260° (W) 19:05:13 435.000/436.395/437.385
XW-2A 11 Dec 18:57:39 19:00:56 54° 260° (W) 19:04:15 145.665 - 145.685
RS-15 11 Dec 19:18:22 19:29:05 33° 355° (N) 19:39:27 29.354- 29.394
SO-50 11 Dec 19:24:19 19:24:47 10° 344° (NNW) 19:25:15 436.795
ZACube-1 11 Dec 19:30:09 19:34:07 45° 261° (W) 19:38:07 437.345
nSIGHT-1 11 Dec 19:32:51 19:34:29 13° 226° (SW) 19:36:06 .
FO-29 11 Dec 19:36:22 19:43:02 39° 94° (E) 19:48:56 435.910
Max Valier Satellite 11 Dec 19:46:53 19:49:43 21° 66° (ENE) 19:52:33 145.860
Oscar 11 11 Dec 19:55:47 19:59:52 42° 262° (W) 20:04:01 .
AO-73 11 Dec 20:07:17 20:10:30 22° 267° (W) 20:13:45 145.935
HO-68 11 Dec 20:09:30 20:11:36 11° 277° (W) 20:13:42 435.675
UNISAT 6 11 Dec 20:18:45 20:20:14 11° 88° (E) 20:21:42 437.425
PCSat 11 Dec 20:20:26 20:25:35 43° 312° (NW) 20:30:46 145.827
EO-88 11 Dec 20:22:27 20:25:49 37° 71° (ENE) 20:29:13 145.990 - 145.960
STRAND 1 11 Dec 20:23:02 20:27:36 34° 295° (WNW) 20:32:08 437.568
DELFI C3 11 Dec 20:26:29 20:30:29 90° 50° (NE) 20:34:31 145.870
BEESAT 3 11 Dec 21:02:05 21:06:05 87° 126° (SE) 21:10:06 437.485
LO-87 11 Dec 21:05:16 21:07:33 16° 65° (ENE) 21:09:50 145.935 - 145.965
Max Valier Satellite 11 Dec 21:20:09 21:23:23 30° 264° (W) 21:26:39 145.860
FO-29 11 Dec 21:21:19 21:28:09 45° 296° (WNW) 21:34:15 435.910
ESTCUBE 1 11 Dec 21:31:22 21:35:18 30° 66° (ENE) 21:39:16 437.505/2401.250
BEESAT 2 11 Dec 21:33:44 21:37:40 54° 122° (ESE) 21:41:38 435.950
RS-15 11 Dec 21:34:11 21:45:33 44° 29° (NNE) 21:56:20 29.354- 29.394
TIGRISAT 11 Dec 21:50:47 21:55:07 89° 278° (W) 21:59:29 435.000
UNISAT 6 11 Dec 21:53:09 21:57:28 77° 284° (WNW) 22:01:50 437.425
EO-88 11 Dec 21:57:11 21:59:36 17° 268° (W) 22:02:03 145.990 - 145.960
PRISM 11 Dec 21:59:02 22:02:53 36° 98° (E) 22:06:40 437.425
PCSat 11 Dec 22:07:52 22:10:27 13° 335° (NNW) 22:13:03 145.827
QB50P2 11 Dec 22:26:18 22:27:19 11° 88° (E) 22:28:21 145.880/145.840
LO-87 11 Dec 22:37:21 22:40:40 38° 262° (W) 22:44:01 145.935 - 145.965
BEESAT 3 11 Dec 22:41:30 22:44:09 17° 326° (NW) 22:46:49 437.485
SO-50 11 Dec 22:46:10 22:49:44 21° 34° (NE) 22:53:19 436.795
SPROUT 11 Dec 22:49:53 22:53:56 45° 71° (ENE) 22:58:00 437.525
AO-85 11 Dec 22:51:14 22:55:09 88° 145° (SE) 22:59:22 145.980
NANOSAT C BR1 11 Dec 22:59:40 23:02:46 20° 92° (E) 23:05:50 145.865
ESTCUBE 1 11 Dec 23:08:01 23:12:03 32° 264° (W) 23:16:07 437.505/2401.250
FO-29 11 Dec 23:09:19 23:11:15 11° 318° (NW) 23:13:09 435.910
EO-79 11 Dec 23:12:15 23:15:58 29° 96° (E) 23:19:40 145.935-145.965
BEESAT 2 11 Dec 23:12:26 23:15:40 23° 321° (NW) 23:18:57 435.950
AIST 2D 11 Dec 23:17:34 23:21:08 69° 285° (WNW) 23:24:39 435.315
VELOX 1 11 Dec 23:19:10 23:23:32 59° 72° (ENE) 23:27:57 145.980
50 SAT 11 Dec 23:22:12 23:23:01 11° 62° (ENE) 23:23:49 437.505
TIGRISAT 11 Dec 23:29:49 23:31:09 11° 302° (WNW) 23:32:29 435.000
POLYITAN 1 11 Dec 23:34:03 23:38:10 49° 100° (E) 23:42:16 437.675
PRISM 11 Dec 23:34:42 23:37:57 23° 296° (WNW) 23:41:11 437.425
RS-15 11 Dec 23:47:25 23:59:20 82° 237° (WSW) 00:10:34 29.354- 29.394
QB50P2 11 Dec 23:59:25 00:03:39 79° 284° (WNW) 00:07:52 145.880/145.840
DUCHIFAT 1 12 Dec 00:09:58 00:14:09 87° 285° (WNW) 00:18:21 145.980
UKube-1 12 Dec 00:17:03 00:20:59 35° 68° (ENE) 00:24:56 .
DX 1 12 Dec 00:25:18 00:29:39 67° 72° (ENE) 00:34:01 434.975-435.025
SO-50 12 Dec 00:26:04 00:30:45 82° 233° (SW) 00:35:28 436.795
SPROUT 12 Dec 00:27:02 00:30:02 19° 268° (W) 00:33:04 437.525
AO-85 12 Dec 00:33:28 00:36:13 17° 328° (NNW) 00:39:06 145.980
NANOSAT C BR1 12 Dec 00:34:41 00:38:39 42° 290° (WNW) 00:42:37 145.865
Oscar 19 12 Dec 00:36:06 00:40:33 28° 94° (E) 00:44:58 437.125/150
BEESAT 12 Dec 00:41:19 00:43:28 13° 56° (NE) 00:45:38 436.000
AO-91 12 Dec 00:45:49 00:48:48 24° 94° (E) 00:51:38 145.960
MOZHAYETS 4 12 Dec 00:47:46 00:50:50 18° 61° (ENE) 00:53:55
EO-79 12 Dec 00:48:03 00:51:39 28° 293° (WNW) 00:55:16 145.935-145.965
50 SAT 12 Dec 00:51:26 00:54:32 50° 259° (W) 00:57:40 437.505
YUBILEINY 12 Dec 00:51:48 00:54:23 12° 69° (ENE) 00:56:59 435.215
Gurwin Techsat 1B 12 Dec 00:51:57 00:56:32 29° 94° (E) 01:01:05 435.225
FALCONSAT 3 12 Dec 00:55:18 00:57:14 14° 176° (S) 00:59:11 435.103
VELOX 1 12 Dec 00:57:37 01:00:21 16° 270° (W) 01:03:07 145.980
BUGSAT 1 12 Dec 01:03:28 01:07:30 87° 100° (E) 01:11:33 437.445
ITUPSAT 1 12 Dec 01:05:48 01:09:17 21° 61° (ENE) 01:12:47 437.325
POLYITAN 1 12 Dec 01:10:41 01:13:35 18° 297° (WNW) 01:16:29 437.675
PCSat 12 Dec 01:39:19 01:42:30 15° 29° (NNE) 01:45:42 145.827
DUCHIFAT 1 12 Dec 01:48:09 01:49:07 11° 302° (WNW) 01:50:07 145.980
UKube-1 12 Dec 01:53:28 01:57:04 25° 265° (W) 02:00:41 .
AO-7 12 Dec 01:56:18 02:02:19 21° 90° (E) 02:08:18 .
RS-15 12 Dec 02:01:32 02:09:49 23° 261° (W) 02:17:51 29.354- 29.394
CUBESAT XI-V 12 Dec 02:01:43 02:05:28 24° 64° (ENE) 02:09:14 437.345
DX 1 12 Dec 02:04:00 02:06:16 14° 270° (W) 02:08:32 434.975-435.025
SO-50 12 Dec 02:08:50 02:10:28 12° 252° (WSW) 02:12:07 436.795
Oscar 19 12 Dec 02:15:06 02:20:01 44° 292° (WNW) 02:24:55 437.125/150
BEESAT 12 Dec 02:15:44 02:20:30 87° 75° (ENE) 02:25:17 436.000
AO-91 12 Dec 02:22:22 02:25:15 23° 294° (WNW) 02:28:00 145.960
MOZHAYETS 4 12 Dec 02:23:04 02:27:33 59° 260° (W) 02:32:05
M-CUBED/EXP-1 PRIME 12 Dec 02:30:35 02:33:53 19° 96° (E) 02:37:04 437.505
Gurwin Techsat 1B 12 Dec 02:31:36 02:36:38 44° 293° (WNW) 02:41:38 435.225
FALCONSAT 3 12 Dec 02:34:05 02:35:29 12° 191° (S) 02:36:53 435.103
YUBILEINY 12 Dec 02:40:34 02:49:06 58° 91° (E) 02:57:42 435.215
BUGSAT 1 12 Dec 02:41:18 02:42:13 11° 302° (WNW) 02:43:08 437.445
ITUPSAT 1 12 Dec 02:42:04 02:46:44 55° 259° (W) 02:51:25 437.325
KKS-1 12 Dec 02:59:55 03:03:13 21° 62° (ENE) 03:06:31 437.445
ITAMSAT 1 12 Dec 03:20:08 03:25:11 50° 100° (E) 03:30:11 435.822/435.867
PCSat 12 Dec 03:21:48 03:27:08 55° 51° (NE) 03:32:27 145.827
CUBESAT XI-V 12 Dec 03:38:10 03:42:35 43° 262° (W) 03:47:05 437.345
BEESAT 3 12 Dec 03:39:08 03:42:08 20° 37° (NE) 03:45:05 437.485
AO-7 12 Dec 03:47:44 03:56:10 89° 110° (ESE) 04:04:34 .
STARS 12 Dec 03:51:18 03:54:59 27° 65° (ENE) 03:58:40 437.465
BEESAT 12 Dec 03:57:11 03:58:56 12° 272° (W) 04:00:40 436.000
AO-85 12 Dec 04:00:34 04:01:10 10° 19° (NNE) 04:01:45 145.980
M-CUBED/EXP-1 PRIME 12 Dec 04:04:03 04:08:34 53° 294° (WNW) 04:12:50 437.505
DOVE 4 12 Dec 04:05:27 04:09:28 28° 93° (E) 04:13:16 437.250
BEESAT 2 12 Dec 04:11:42 04:14:14 16° 33° (NNE) 04:16:45 435.950
STRAND 1 12 Dec 04:27:37 04:29:07 11° 53° (NE) 04:30:36 437.568
KKS-1 12 Dec 04:35:07 04:39:27 49° 260° (W) 04:43:48 437.445
YUBILEINY 12 Dec 04:38:22 04:46:21 37° 293° (WNW) 04:54:24 435.215
XW-2D 12 Dec 04:39:06 04:39:57 11° 88° (E) 04:40:48 145.860 - 145.880
XW-2B 12 Dec 04:53:35 04:55:53 15° 91° (E) 04:58:10 145.730 - 145.750
KAITUO 1B 12 Dec 04:55:01 04:56:12 11° 89° (E) 04:57:22 145.475/437.950
NUDT-PHONESAT 12 Dec 04:56:55 04:57:57 11° 89° (E) 04:58:57 437.300
ITAMSAT 1 12 Dec 05:00:09 05:04:21 25° 299° (WNW) 05:08:32 435.822/435.867
PCSat 12 Dec 05:05:45 05:10:13 26° 251° (WSW) 05:14:39 145.827
XW-2F 12 Dec 05:07:55 05:10:50 20° 93° (E) 05:13:44 145.980 - 146.000
BEESAT 3 12 Dec 05:16:07 05:20:02 62° 236° (WSW) 05:23:51 437.485
XW-2C 12 Dec 05:19:54 05:23:19 29° 96° (E) 05:26:43 145.795 - 145.815
STARS 12 Dec 05:27:09 05:31:11 35° 263° (W) 05:35:14 437.465
AO-85 12 Dec 05:38:52 05:42:59 30° 41° (NE) 05:47:23 145.980
HO-68 12 Dec 05:40:33 05:46:01 23° 90° (E) 05:51:26 435.675
AO-7 12 Dec 05:41:26 05:47:59 27° 311° (NW) 05:54:33 .
DOVE 4 12 Dec 05:43:02 05:47:11 33° 293° (WNW) 05:51:06 437.250
BEESAT 2 12 Dec 05:48:32 05:52:36 83° 55° (NE) 05:56:35 435.950
FO-29 12 Dec 05:50:27 05:56:55 30° 58° (ENE) 06:03:24 435.910
LilacSat-2 12 Dec 05:52:10 05:56:04 76° 102° (ESE) 05:59:57 437.200
STRAND 1 12 Dec 06:02:16 06:07:21 67° 72° (ENE) 06:12:26 437.568
CUTE-I 12 Dec 06:03:35 06:08:55 63° 102° (ESE) 06:14:10 437.470
SEEDS 12 Dec 06:04:06 06:06:45 16° 90° (E) 06:09:21 437.485
XW-2D 12 Dec 06:10:43 06:14:33 69° 286° (WNW) 06:18:22 145.860 - 145.880
CUTE 1.7 + AOD 2 12 Dec 06:20:10 06:24:11 36° 97° (E) 06:28:09 437.475
XW-2B 12 Dec 06:26:35 06:30:18 47° 288° (WNW) 06:34:00 145.730 - 145.750
KAITUO 1B 12 Dec 06:26:47 06:30:35 63° 286° (WNW) 06:34:19 145.475/437.950
NUDT-PHONESAT 12 Dec 06:28:27 06:32:11 63° 286° (WNW) 06:35:53 437.300
AAUSAT CUBESAT 2 12 Dec 06:32:32 06:34:42 14° 89° (E) 06:36:52 437.432
CUBEBUG 2 12 Dec 06:37:21 06:41:12 33° 97° (E) 06:45:07 437.445
XW-2F 12 Dec 06:41:31 06:45:01 34° 290° (WNW) 06:48:30 145.980 - 146.000
UWE-3 12 Dec 06:43:34 06:47:00 23° 94° (E) 06:50:28 435.000/436.395/437.385
XW-2C 12 Dec 06:54:14 06:57:23 24° 293° (WNW) 07:00:31 145.795 - 145.815
ZACube-1 12 Dec 07:15:08 07:18:48 26° 95° (E) 07:22:31 437.345
TIGRISAT 12 Dec 07:18:03 07:20:09 14° 60° (ENE) 07:22:17 435.000
AO-85 12 Dec 07:19:01 07:23:38 51° 239° (WSW) 07:28:32 145.980
UNISAT 6 12 Dec 07:20:02 07:22:34 15° 61° (ENE) 07:25:05 437.425
BEESAT 2 12 Dec 07:28:25 07:29:39 11° 251° (WSW) 07:30:53 435.950
LilacSat-2 12 Dec 07:28:30 07:29:45 11° 300° (WNW) 07:30:59 437.200
